Year,Month,Day,Hour,Minute,Value (Times are PST for temperature in C)
2018,03,19,00,00,3.40
2018,03,19,00,01,3.40
2018,03,19,00,02,3.40
2018,03,19,00,03,3.40
2018,03,19,00,04,3.40
2018,03,19,00,05,3.40
2018,03,19,00,06,3.40
2018,03,19,00,07,3.40
2018,03,19,00,08,3.30
2018,03,19,00,09,3.30
2018,03,19,00,10,3.30
2018,03,19,00,11,3.20
2018,03,19,00,12,3.20
2018,03,19,00,13,3.10
2018,03,19,00,14,3.10
2018,03,19,00,15,3.00
2018,03,19,00,16,3.00
2018,03,19,00,17,2.90
2018,03,19,00,18,2.90
2018,03,19,00,19,2.90
2018,03,19,00,20,2.90
2018,03,19,00,21,2.80
2018,03,19,00,22,2.80
2018,03,19,00,23,2.80
2018,03,19,00,24,2.90
2018,03,19,00,25,2.90
2018,03,19,00,26,2.90
2018,03,19,00,27,3.00
2018,03,19,00,28,3.00
2018,03,19,00,29,3.10
2018,03,19,00,30,3.10
2018,03,19,00,31,3.10
2018,03,19,00,32,3.10
2018,03,19,00,33,3.10
2018,03,19,00,34,3.20
2018,03,19,00,35,3.20
2018,03,19,00,36,3.20
2018,03,19,00,37,3.20
2018,03,19,00,38,3.20
2018,03,19,00,39,3.20
2018,03,19,00,40,3.20
2018,03,19,00,41,3.20
2018,03,19,00,42,3.20
2018,03,19,00,43,3.20
2018,03,19,00,44,3.20
2018,03,19,00,45,3.30
2018,03,19,00,46,3.30
2018,03,19,00,47,3.30
2018,03,19,00,48,3.30
2018,03,19,00,49,3.20
2018,03,19,00,50,3.20
2018,03,19,00,51,3.20
2018,03,19,00,52,3.20
2018,03,19,00,53,3.20
2018,03,19,00,54,3.20
2018,03,19,00,55,3.20
2018,03,19,00,56,3.20
2018,03,19,00,57,3.20
2018,03,19,00,58,3.20
2018,03,19,00,59,3.20
2018,03,19,01,00,3.20
2018,03,19,01,01,3.10
2018,03,19,01,02,3.10
2018,03,19,01,03,3.10
2018,03,19,01,04,3.10
2018,03,19,01,05,3.10
2018,03,19,01,06,3.00
2018,03,19,01,07,3.00
2018,03,19,01,08,3.00
2018,03,19,01,09,3.00
2018,03,19,01,10,3.00
2018,03,19,01,11,2.90
2018,03,19,01,12,2.90
2018,03,19,01,13,2.90
2018,03,19,01,14,2.90
2018,03,19,01,15,2.80
2018,03,19,01,16,2.80
2018,03,19,01,17,2.80
2018,03,19,01,18,2.80
2018,03,19,01,19,2.70
2018,03,19,01,20,2.70
2018,03,19,01,21,2.70
2018,03,19,01,22,2.70
2018,03,19,01,23,2.70
2018,03,19,01,24,2.70
2018,03,19,01,25,2.60
2018,03,19,01,26,2.50
2018,03,19,01,27,2.50
2018,03,19,01,28,2.40
2018,03,19,01,29,2.40
2018,03,19,01,30,2.30
2018,03,19,01,31,2.30
2018,03,19,01,32,2.30
2018,03,19,01,33,2.30
2018,03,19,01,34,2.30
2018,03,19,01,35,2.30
2018,03,19,01,36,2.30
2018,03,19,01,37,2.20
2018,03,19,01,38,2.20
2018,03,19,01,39,2.20
2018,03,19,01,40,2.20
2018,03,19,01,41,2.20
2018,03,19,01,42,2.30
2018,03,19,01,43,2.30
2018,03,19,01,44,2.30
2018,03,19,01,45,2.30
2018,03,19,01,46,2.30
2018,03,19,01,47,2.30
2018,03,19,01,48,2.30
2018,03,19,01,49,2.30
2018,03,19,01,50,2.30
2018,03,19,01,51,2.30
2018,03,19,01,52,2.30
2018,03,19,01,53,2.40
2018,03,19,01,54,2.30
2018,03,19,01,55,2.30
2018,03,19,01,56,2.30
2018,03,19,01,57,2.30
2018,03,19,01,58,2.30
2018,03,19,01,59,2.30
2018,03,19,02,00,2.30
2018,03,19,02,01,2.30
2018,03,19,02,02,2.30
2018,03,19,02,03,2.30
2018,03,19,02,04,2.20
2018,03,19,02,05,2.20
2018,03,19,02,06,2.20
2018,03,19,02,07,2.20
2018,03,19,02,08,2.10
2018,03,19,02,09,2.10
2018,03,19,02,10,2.10
2018,03,19,02,11,2.20
2018,03,19,02,12,2.20
2018,03,19,02,13,2.20
2018,03,19,02,14,2.20
2018,03,19,02,15,2.20
2018,03,19,02,16,2.20
2018,03,19,02,17,2.20
2018,03,19,02,18,2.20
2018,03,19,02,19,2.20
2018,03,19,02,20,2.20
2018,03,19,02,21,2.20
2018,03,19,02,22,2.20
2018,03,19,02,23,2.20
2018,03,19,02,24,2.20
2018,03,19,02,25,2.20
2018,03,19,02,26,2.10
2018,03,19,02,27,2.10
2018,03,19,02,28,2.10
2018,03,19,02,29,2.10
2018,03,19,02,30,2.00
2018,03,19,02,31,2.00
2018,03,19,02,32,2.00
2018,03,19,02,33,1.90
2018,03,19,02,34,1.80
2018,03,19,02,35,1.80
2018,03,19,02,36,1.80
2018,03,19,02,37,1.80
2018,03,19,02,38,1.70
2018,03,19,02,39,1.70
2018,03,19,02,40,1.70
2018,03,19,02,41,1.70
2018,03,19,02,42,1.80
2018,03,19,02,43,1.80
2018,03,19,02,44,1.90
2018,03,19,02,45,1.90
2018,03,19,02,46,1.90
2018,03,19,02,47,1.90
2018,03,19,02,48,1.90
2018,03,19,02,49,1.90
2018,03,19,02,50,1.90
2018,03,19,02,51,1.90
2018,03,19,02,52,1.90
2018,03,19,02,53,1.90
2018,03,19,02,54,2.00
2018,03,19,02,55,2.00
2018,03,19,02,56,2.00
2018,03,19,02,57,2.00
2018,03,19,02,58,2.00
2018,03,19,02,59,2.00
2018,03,19,03,00,2.00
2018,03,19,03,01,2.00
2018,03,19,03,02,2.00
2018,03,19,03,03,2.00
2018,03,19,03,04,2.00
2018,03,19,03,05,2.00
2018,03,19,03,06,2.00
2018,03,19,03,07,2.00
2018,03,19,03,08,2.00
2018,03,19,03,09,1.90
2018,03,19,03,10,1.90
2018,03,19,03,11,2.00
2018,03,19,03,12,2.00
2018,03,19,03,13,2.00
2018,03,19,03,14,2.00
2018,03,19,03,15,2.00
2018,03,19,03,16,1.90
2018,03,19,03,17,1.90
2018,03,19,03,18,1.90
2018,03,19,03,19,1.90
2018,03,19,03,20,1.90
2018,03,19,03,21,1.80
2018,03,19,03,22,1.80
2018,03,19,03,23,1.80
2018,03,19,03,24,1.80
2018,03,19,03,25,1.80
2018,03,19,03,26,1.80
2018,03,19,03,27,1.80
2018,03,19,03,28,1.80
2018,03,19,03,29,1.80
2018,03,19,03,30,1.80
2018,03,19,03,31,1.80
2018,03,19,03,32,1.80
2018,03,19,03,33,1.70
2018,03,19,03,34,1.70
2018,03,19,03,35,1.70
2018,03,19,03,36,1.70
2018,03,19,03,37,1.70
2018,03,19,03,38,1.70
2018,03,19,03,39,1.70
2018,03,19,03,40,1.70
2018,03,19,03,41,1.70
2018,03,19,03,42,1.70
2018,03,19,03,43,1.70
2018,03,19,03,44,1.70
2018,03,19,03,45,1.70
2018,03,19,03,46,1.70
2018,03,19,03,47,1.70
2018,03,19,03,48,1.70
2018,03,19,03,49,1.70
2018,03,19,03,50,1.70
2018,03,19,03,51,1.70
2018,03,19,03,52,1.60
2018,03,19,03,53,1.60
2018,03,19,03,54,1.60
2018,03,19,03,55,1.60
2018,03,19,03,56,1.60
2018,03,19,03,57,1.60
2018,03,19,03,58,1.60
2018,03,19,03,59,1.60
2018,03,19,04,00,1.60
2018,03,19,04,01,1.60
2018,03,19,04,02,1.60
2018,03,19,04,03,1.70
2018,03,19,04,04,1.70
2018,03,19,04,05,1.70
2018,03,19,04,06,1.70
2018,03,19,04,07,1.80
2018,03,19,04,08,1.80
2018,03,19,04,09,1.80
2018,03,19,04,10,1.80
2018,03,19,04,11,1.90
2018,03,19,04,12,1.90
2018,03,19,04,13,1.90
2018,03,19,04,14,1.90
2018,03,19,04,15,2.00
2018,03,19,04,16,2.00
2018,03,19,04,17,2.10
2018,03,19,04,18,2.10
2018,03,19,04,19,2.10
2018,03,19,04,20,2.10
2018,03,19,04,21,2.10
2018,03,19,04,22,2.10
2018,03,19,04,23,2.10
2018,03,19,04,24,2.20
2018,03,19,04,25,2.20
2018,03,19,04,26,2.20
2018,03,19,04,27,2.20
2018,03,19,04,28,2.20
2018,03,19,04,29,2.20
2018,03,19,04,30,2.20
2018,03,19,04,31,2.20
2018,03,19,04,32,2.30
2018,03,19,04,33,2.20
2018,03,19,04,34,2.20
2018,03,19,04,35,2.20
2018,03,19,04,36,2.20
2018,03,19,04,37,2.20
2018,03,19,04,38,2.20
2018,03,19,04,39,2.30
2018,03,19,04,40,2.30
2018,03,19,04,41,2.30
2018,03,19,04,42,2.30
2018,03,19,04,43,2.30
2018,03,19,04,44,2.30
2018,03,19,04,45,2.30
2018,03,19,04,46,2.30
2018,03,19,04,47,2.30
2018,03,19,04,48,2.30
2018,03,19,04,49,2.30
2018,03,19,04,50,2.30
2018,03,19,04,51,2.30
2018,03,19,04,52,2.30
2018,03,19,04,53,2.30
2018,03,19,04,54,2.30
2018,03,19,04,55,2.30
2018,03,19,04,56,2.30
2018,03,19,04,57,2.30
2018,03,19,04,58,2.30
2018,03,19,04,59,2.30
2018,03,19,05,00,2.30
2018,03,19,05,01,2.30
2018,03,19,05,02,2.30
2018,03,19,05,03,2.30
2018,03,19,05,04,2.30
2018,03,19,05,05,2.30
2018,03,19,05,06,2.30
2018,03,19,05,07,2.30
2018,03,19,05,08,2.30
2018,03,19,05,09,2.30
2018,03,19,05,10,2.30
2018,03,19,05,11,2.30
2018,03,19,05,12,2.30
2018,03,19,05,13,2.30
2018,03,19,05,14,2.30
2018,03,19,05,15,2.30
2018,03,19,05,16,2.30
2018,03,19,05,17,2.30
2018,03,19,05,18,2.30
2018,03,19,05,19,2.30
2018,03,19,05,20,2.30
2018,03,19,05,21,2.30
2018,03,19,05,22,2.30
2018,03,19,05,23,2.30
2018,03,19,05,24,2.30
2018,03,19,05,25,2.30
2018,03,19,05,26,2.30
2018,03,19,05,27,2.30
2018,03,19,05,28,2.30
2018,03,19,05,29,2.30
2018,03,19,05,30,2.30
2018,03,19,05,31,2.30
2018,03,19,05,32,2.30
2018,03,19,05,33,2.30
2018,03,19,05,34,2.30
2018,03,19,05,35,2.30
2018,03,19,05,36,2.30
2018,03,19,05,37,2.30
2018,03,19,05,38,2.30
2018,03,19,05,39,2.30
2018,03,19,05,40,2.30
2018,03,19,05,41,2.40
2018,03,19,05,42,2.40
2018,03,19,05,43,2.40
2018,03,19,05,44,2.40
2018,03,19,05,45,2.40
2018,03,19,05,46,2.40
2018,03,19,05,47,2.40
2018,03,19,05,48,2.40
2018,03,19,05,49,2.40
2018,03,19,05,50,2.40
2018,03,19,05,51,2.40
2018,03,19,05,52,2.40
2018,03,19,05,53,2.40
2018,03,19,05,54,2.50
2018,03,19,05,55,2.50
2018,03,19,05,56,2.50
2018,03,19,05,57,2.50
2018,03,19,05,58,2.50
2018,03,19,05,59,2.50
2018,03,19,06,00,2.50
2018,03,19,06,01,2.50
2018,03,19,06,02,2.50
2018,03,19,06,03,2.50
2018,03,19,06,04,2.50
2018,03,19,06,05,2.40
2018,03,19,06,06,2.40
2018,03,19,06,07,2.40
2018,03,19,06,08,2.40
2018,03,19,06,09,2.40
2018,03,19,06,10,2.40
2018,03,19,06,11,2.40
2018,03,19,06,12,2.40
2018,03,19,06,13,2.40
2018,03,19,06,14,2.40
2018,03,19,06,15,2.40
2018,03,19,06,16,2.40
2018,03,19,06,17,2.40
2018,03,19,06,18,2.40
2018,03,19,06,19,2.40
2018,03,19,06,20,2.40
2018,03,19,06,21,2.40
2018,03,19,06,22,2.40
2018,03,19,06,23,2.40
2018,03,19,06,24,2.40
2018,03,19,06,25,2.40
2018,03,19,06,26,2.40
2018,03,19,06,27,2.40
2018,03,19,06,28,2.50
2018,03,19,06,29,2.50
2018,03,19,06,30,2.50
2018,03,19,06,31,2.50
2018,03,19,06,32,2.50
2018,03,19,06,33,2.50
2018,03,19,06,34,2.50
2018,03,19,06,35,2.50
2018,03,19,06,36,2.60
2018,03,19,06,37,2.60
2018,03,19,06,38,2.60
2018,03,19,06,39,2.50
2018,03,19,06,40,2.50
2018,03,19,06,41,2.50
2018,03,19,06,42,2.60
2018,03,19,06,43,2.60
2018,03,19,06,44,2.50
2018,03,19,06,45,2.60
2018,03,19,06,46,2.60
2018,03,19,06,47,2.60
2018,03,19,06,48,2.60
2018,03,19,06,49,2.60
2018,03,19,06,50,2.60
2018,03,19,06,51,2.60
2018,03,19,06,52,2.60
2018,03,19,06,53,2.60
2018,03,19,06,54,2.60
2018,03,19,06,55,2.60
2018,03,19,06,56,2.60
2018,03,19,06,57,2.60
2018,03,19,06,58,2.60
2018,03,19,06,59,2.60
2018,03,19,07,00,2.60
2018,03,19,07,01,2.60
2018,03,19,07,02,2.60
2018,03,19,07,03,2.60
2018,03,19,07,04,2.60
2018,03,19,07,05,2.60
2018,03,19,07,06,2.60
2018,03,19,07,07,2.60
2018,03,19,07,08,2.60
2018,03,19,07,09,2.60
2018,03,19,07,10,2.60
2018,03,19,07,11,2.60
2018,03,19,07,12,2.60
2018,03,19,07,13,2.60
2018,03,19,07,14,2.60
2018,03,19,07,15,2.60
2018,03,19,07,16,2.60
2018,03,19,07,17,2.60
2018,03,19,07,18,2.60
2018,03,19,07,19,2.60
2018,03,19,07,20,2.60
2018,03,19,07,21,2.60
2018,03,19,07,22,2.60
2018,03,19,07,23,2.60
2018,03,19,07,24,2.60
2018,03,19,07,25,2.60
2018,03,19,07,26,2.60
2018,03,19,07,27,2.60
2018,03,19,07,28,2.60
2018,03,19,07,29,2.60
2018,03,19,07,30,2.60
2018,03,19,07,31,2.60
2018,03,19,07,32,2.60
2018,03,19,07,33,2.60
2018,03,19,07,34,2.60
2018,03,19,07,35,2.60
2018,03,19,07,36,2.60
2018,03,19,07,37,2.60
2018,03,19,07,38,2.60
2018,03,19,07,39,2.60
2018,03,19,07,40,2.60
2018,03,19,07,41,2.60
2018,03,19,07,42,2.70
2018,03,19,07,43,2.70
2018,03,19,07,44,2.70
2018,03,19,07,45,2.70
2018,03,19,07,46,2.70
2018,03,19,07,47,2.70
2018,03,19,07,48,2.70
2018,03,19,07,49,2.70
2018,03,19,07,50,2.70
2018,03,19,07,51,2.70
2018,03,19,07,52,2.70
2018,03,19,07,53,2.70
2018,03,19,07,54,2.70
2018,03,19,07,55,2.70
2018,03,19,07,56,2.70
2018,03,19,07,57,2.70
2018,03,19,07,58,2.70
2018,03,19,07,59,2.70
2018,03,19,08,00,2.70
2018,03,19,08,01,2.70
2018,03,19,08,02,2.70
2018,03,19,08,03,2.80
2018,03,19,08,04,2.80
2018,03,19,08,05,2.80
2018,03,19,08,06,2.80
2018,03,19,08,07,2.80
2018,03,19,08,08,2.80
2018,03,19,08,09,2.80
2018,03,19,08,10,2.80
2018,03,19,08,11,2.80
2018,03,19,08,12,2.80
2018,03,19,08,13,2.80
2018,03,19,08,14,2.80
2018,03,19,08,15,2.80
2018,03,19,08,16,2.80
2018,03,19,08,17,2.80
2018,03,19,08,18,2.80
2018,03,19,08,19,2.80
2018,03,19,08,20,2.80
2018,03,19,08,21,2.80
2018,03,19,08,22,2.80
2018,03,19,08,23,2.80
2018,03,19,08,24,2.80
2018,03,19,08,25,2.80
2018,03,19,08,26,2.80
2018,03,19,08,27,2.90
2018,03,19,08,28,2.90
2018,03,19,08,29,2.90
2018,03,19,08,30,2.90
2018,03,19,08,31,2.90
2018,03,19,08,32,2.90
2018,03,19,08,33,2.90
2018,03,19,08,34,2.90
2018,03,19,08,35,2.90
2018,03,19,08,36,2.90
2018,03,19,08,37,2.90
2018,03,19,08,38,2.90
2018,03,19,08,39,2.90
2018,03,19,08,40,2.90
2018,03,19,08,41,2.90
2018,03,19,08,42,2.90
2018,03,19,08,43,2.90
2018,03,19,08,44,2.90
2018,03,19,08,45,2.90
2018,03,19,08,46,2.90
2018,03,19,08,47,3.00
2018,03,19,08,48,3.00
2018,03,19,08,49,3.00
2018,03,19,08,50,3.10
2018,03,19,08,51,3.10
2018,03,19,08,52,3.10
2018,03,19,08,53,3.10
2018,03,19,08,54,3.10
2018,03,19,08,55,3.10
2018,03,19,08,56,3.10
2018,03,19,08,57,3.10
2018,03,19,08,58,3.10
2018,03,19,08,59,3.10
2018,03,19,09,00,3.20
2018,03,19,09,01,3.20
2018,03,19,09,02,3.20
2018,03,19,09,03,3.20
2018,03,19,09,04,3.20
2018,03,19,09,05,3.20
2018,03,19,09,06,3.20
2018,03,19,09,07,3.20
2018,03,19,09,08,3.20
2018,03,19,09,09,3.20
2018,03,19,09,10,3.30
2018,03,19,09,11,3.30
2018,03,19,09,12,3.30
2018,03,19,09,13,3.30
2018,03,19,09,14,3.30
2018,03,19,09,15,3.30
2018,03,19,09,16,3.30
2018,03,19,09,17,3.40
2018,03,19,09,18,3.40
2018,03,19,09,19,3.40
2018,03,19,09,20,3.40
2018,03,19,09,21,3.40
2018,03,19,09,22,3.40
2018,03,19,09,23,3.50
2018,03,19,09,24,3.50
2018,03,19,09,25,3.50
2018,03,19,09,26,3.50
2018,03,19,09,27,3.50
2018,03,19,09,28,3.50
2018,03,19,09,29,3.60
2018,03,19,09,30,3.60
2018,03,19,09,31,3.60
2018,03,19,09,32,3.60
2018,03,19,09,33,3.60
2018,03,19,09,34,3.60
2018,03,19,09,35,3.60
2018,03,19,09,36,3.70
2018,03,19,09,37,3.70
2018,03,19,09,38,3.70
2018,03,19,09,39,3.70
2018,03,19,09,40,3.70
2018,03,19,09,41,3.70
2018,03,19,09,42,3.80
2018,03,19,09,43,3.80
2018,03,19,09,44,3.80
2018,03,19,09,45,3.80
2018,03,19,09,46,3.80
2018,03,19,09,47,3.90
2018,03,19,09,48,3.90
2018,03,19,09,49,3.90
2018,03,19,09,50,3.90
2018,03,19,09,51,3.90
2018,03,19,09,52,4.00
2018,03,19,09,53,4.00
2018,03,19,09,54,4.00
2018,03,19,09,55,4.10
2018,03,19,09,56,4.10
2018,03,19,09,57,4.10
2018,03,19,09,58,4.10
2018,03,19,09,59,4.20
2018,03,19,10,00,4.20
2018,03,19,10,01,4.20
2018,03,19,10,02,4.30
2018,03,19,10,03,4.30
2018,03,19,10,04,4.30
2018,03,19,10,05,4.40
2018,03,19,10,06,4.40
2018,03,19,10,07,4.50
2018,03,19,10,08,4.50
2018,03,19,10,09,4.60
2018,03,19,10,10,4.60
2018,03,19,10,11,4.60
2018,03,19,10,12,4.70
2018,03,19,10,13,4.70
2018,03,19,10,14,4.80
2018,03,19,10,15,4.80
2018,03,19,10,16,4.90
2018,03,19,10,17,4.90
2018,03,19,10,18,5.00
2018,03,19,10,19,5.00
2018,03,19,10,20,5.10
2018,03,19,10,21,5.10
2018,03,19,10,22,5.20
2018,03,19,10,23,5.20
2018,03,19,10,24,5.30
2018,03,19,10,25,5.30
2018,03,19,10,26,5.40
2018,03,19,10,27,5.40
2018,03,19,10,28,5.50
2018,03,19,10,29,5.50
2018,03,19,10,30,5.60
2018,03,19,10,31,5.70
2018,03,19,10,32,5.80
2018,03,19,10,33,5.80
2018,03,19,10,34,5.90
2018,03,19,10,35,6.00
2018,03,19,10,36,6.10
2018,03,19,10,37,6.20
2018,03,19,10,38,6.20
2018,03,19,10,39,6.30
2018,03,19,10,40,6.30
2018,03,19,10,41,6.40
2018,03,19,10,42,6.50
2018,03,19,10,43,6.50
2018,03,19,10,44,6.60
2018,03,19,10,45,6.70
2018,03,19,10,46,6.80
2018,03,19,10,47,6.90
2018,03,19,10,48,6.90
2018,03,19,10,49,7.00
2018,03,19,10,50,7.10
2018,03,19,10,51,7.10
2018,03,19,10,52,7.20
2018,03,19,10,53,7.20
2018,03,19,10,54,7.20
2018,03,19,10,55,7.20
2018,03,19,10,56,7.30
2018,03,19,10,57,7.30
2018,03,19,10,58,7.30
2018,03,19,10,59,7.40
2018,03,19,11,00,7.40
2018,03,19,11,01,7.50
2018,03,19,11,02,7.50
2018,03,19,11,03,7.60
2018,03,19,11,04,7.60
2018,03,19,11,05,7.70
2018,03,19,11,06,7.80
2018,03,19,11,07,7.80
2018,03,19,11,08,7.90
2018,03,19,11,09,7.90
2018,03,19,11,10,8.00
2018,03,19,11,11,8.00
2018,03,19,11,12,8.10
2018,03,19,11,13,8.20
2018,03,19,11,14,8.20
2018,03,19,11,15,8.30
2018,03,19,11,16,8.30
2018,03,19,11,17,8.30
2018,03,19,11,18,8.30
2018,03,19,11,19,8.30
2018,03,19,11,20,8.30
2018,03,19,11,21,8.30
2018,03,19,11,22,8.30
2018,03,19,11,23,8.30
2018,03,19,11,24,8.40
2018,03,19,11,25,8.40
2018,03,19,11,26,8.50
2018,03,19,11,27,8.50
2018,03,19,11,28,8.60
2018,03,19,11,29,8.60
2018,03,19,11,30,8.60
2018,03,19,11,31,8.60
2018,03,19,11,32,8.60
2018,03,19,11,33,8.60
2018,03,19,11,34,8.70
2018,03,19,11,35,8.70
2018,03,19,11,36,8.70
2018,03,19,11,37,8.70
2018,03,19,11,38,8.80
2018,03,19,11,39,8.80
2018,03,19,11,40,8.90
2018,03,19,11,41,8.90
2018,03,19,11,42,8.90
2018,03,19,11,43,9.00
2018,03,19,11,44,9.00
2018,03,19,11,45,9.00
2018,03,19,11,46,9.00
2018,03,19,11,47,9.00
2018,03,19,11,48,9.00
2018,03,19,11,49,9.10
2018,03,19,11,50,9.00
2018,03,19,11,51,9.00
2018,03,19,11,52,9.00
2018,03,19,11,53,8.90
2018,03,19,11,54,8.90
2018,03,19,11,55,8.90
2018,03,19,11,56,8.90
2018,03,19,11,57,8.90
2018,03,19,11,58,8.90
2018,03,19,11,59,8.90
2018,03,19,12,00,8.90
2018,03,19,12,01,8.90
2018,03,19,12,02,8.90
2018,03,19,12,03,8.90
2018,03,19,12,04,8.90
2018,03,19,12,05,8.90
2018,03,19,12,06,8.90
2018,03,19,12,07,8.90
2018,03,19,12,08,8.90
2018,03,19,12,09,8.90
2018,03,19,12,10,8.90
2018,03,19,12,11,9.00
2018,03,19,12,12,9.00
2018,03,19,12,13,9.00
2018,03,19,12,14,9.00
2018,03,19,12,15,9.00
2018,03,19,12,16,9.00
2018,03,19,12,17,9.00
2018,03,19,12,18,9.00
2018,03,19,12,19,9.00
2018,03,19,12,20,9.00
2018,03,19,12,21,9.00
2018,03,19,12,22,9.00
2018,03,19,12,23,9.00
2018,03,19,12,24,9.00
2018,03,19,12,25,9.10
2018,03,19,12,26,9.10
2018,03,19,12,27,9.00
2018,03,19,12,28,9.00
2018,03,19,12,29,9.10
2018,03,19,12,30,9.10
2018,03,19,12,31,9.10
2018,03,19,12,32,9.10
2018,03,19,12,33,9.10
2018,03,19,12,34,9.10
2018,03,19,12,35,9.10
2018,03,19,12,36,9.10
2018,03,19,12,37,9.10
2018,03,19,12,38,9.10
2018,03,19,12,39,9.10
2018,03,19,12,40,9.10
2018,03,19,12,41,9.00
2018,03,19,12,42,9.00
2018,03,19,12,43,9.00
2018,03,19,12,44,8.90
2018,03,19,12,45,8.90
2018,03,19,12,46,8.90
2018,03,19,12,47,8.80
2018,03,19,12,48,8.80
2018,03,19,12,49,8.80
2018,03,19,12,50,8.80
2018,03,19,12,51,8.80
2018,03,19,12,52,8.70
2018,03,19,12,53,8.70
2018,03,19,12,54,8.70
2018,03,19,12,55,8.70
2018,03,19,12,56,8.80
2018,03,19,12,57,8.70
2018,03,19,12,58,8.80
2018,03,19,12,59,8.80
2018,03,19,13,00,8.80
2018,03,19,13,01,8.90
2018,03,19,13,02,8.90
2018,03,19,13,03,9.00
2018,03,19,13,04,9.00
2018,03,19,13,05,9.00
2018,03,19,13,06,9.10
2018,03,19,13,07,9.10
2018,03,19,13,08,9.10
2018,03,19,13,09,9.10
2018,03,19,13,10,9.10
2018,03,19,13,11,9.20
2018,03,19,13,12,9.20
2018,03,19,13,13,9.20
2018,03,19,13,14,9.20
2018,03,19,13,15,9.20
2018,03,19,13,16,9.10
2018,03,19,13,17,9.10
2018,03,19,13,18,9.00
2018,03,19,13,19,9.00
2018,03,19,13,20,8.90
2018,03,19,13,21,8.90
2018,03,19,13,22,8.90
2018,03,19,13,23,8.80
2018,03,19,13,24,8.80
2018,03,19,13,25,8.80
2018,03,19,13,26,8.80
2018,03,19,13,27,8.80
2018,03,19,13,28,8.80
2018,03,19,13,29,8.80
2018,03,19,13,30,8.80
2018,03,19,13,31,8.80
2018,03,19,13,32,8.80
2018,03,19,13,33,8.80
2018,03,19,13,34,8.80
2018,03,19,13,35,8.90
2018,03,19,13,36,8.90
2018,03,19,13,37,8.90
2018,03,19,13,38,8.90
2018,03,19,13,39,8.90
2018,03,19,13,40,8.90
2018,03,19,13,41,9.00
2018,03,19,13,42,9.00
2018,03,19,13,43,9.10
2018,03,19,13,44,9.10
2018,03,19,13,45,9.20
2018,03,19,13,46,9.20
2018,03,19,13,47,9.20
2018,03,19,13,48,9.20
2018,03,19,13,49,9.20
2018,03,19,13,50,9.30
2018,03,19,13,51,9.30
2018,03,19,13,52,9.30
2018,03,19,13,53,9.30
2018,03,19,13,54,9.30
2018,03,19,13,55,9.30
2018,03,19,13,56,9.30
2018,03,19,13,57,9.30
2018,03,19,13,58,9.40
2018,03,19,13,59,9.40
2018,03,19,14,00,9.40
2018,03,19,14,01,9.40
2018,03,19,14,02,9.40
2018,03,19,14,03,9.50
2018,03,19,14,04,9.50
2018,03,19,14,05,9.50
2018,03,19,14,06,9.50
2018,03,19,14,07,9.50
2018,03,19,14,08,9.60
2018,03,19,14,09,9.60
2018,03,19,14,10,9.70
2018,03,19,14,11,9.70
2018,03,19,14,12,9.80
2018,03,19,14,13,9.80
2018,03,19,14,14,9.80
2018,03,19,14,15,9.90
2018,03,19,14,16,9.90
2018,03,19,14,17,9.90
2018,03,19,14,18,10.00
2018,03,19,14,19,10.00
2018,03,19,14,20,10.00
2018,03,19,14,21,10.00
2018,03,19,14,22,10.00
2018,03,19,14,23,10.00
2018,03,19,14,24,10.00
2018,03,19,14,25,9.90
2018,03,19,14,26,9.90
2018,03,19,14,27,9.90
2018,03,19,14,28,9.80
2018,03,19,14,29,9.80
2018,03,19,14,30,9.80
2018,03,19,14,31,9.80
2018,03,19,14,32,9.80
2018,03,19,14,33,9.80
2018,03,19,14,34,9.80
2018,03,19,14,35,9.80
2018,03,19,14,36,9.80
2018,03,19,14,37,9.90
2018,03,19,14,38,9.80
2018,03,19,14,39,9.90
2018,03,19,14,40,9.90
2018,03,19,14,41,9.90
2018,03,19,14,42,10.00
2018,03,19,14,43,10.00
2018,03,19,14,44,10.00
2018,03,19,14,45,10.00
2018,03,19,14,46,10.00
2018,03,19,14,47,10.00
2018,03,19,14,48,10.00
2018,03,19,14,49,10.10
2018,03,19,14,50,10.10
2018,03,19,14,51,10.10
2018,03,19,14,52,10.10
2018,03,19,14,53,10.00
2018,03,19,14,54,10.00
2018,03,19,14,55,10.00
2018,03,19,14,56,9.90
2018,03,19,14,57,9.90
2018,03,19,14,58,10.00
2018,03,19,14,59,10.00
2018,03,19,15,00,10.10
2018,03,19,15,01,10.10
2018,03,19,15,02,10.10
2018,03,19,15,03,10.10
2018,03,19,15,04,10.10
2018,03,19,15,05,10.10
2018,03,19,15,06,10.10
2018,03,19,15,07,10.10
2018,03,19,15,08,10.10
2018,03,19,15,09,10.10
2018,03,19,15,10,10.10
2018,03,19,15,11,10.00
2018,03,19,15,12,10.00
2018,03,19,15,13,9.90
2018,03,19,15,14,9.90
2018,03,19,15,15,9.80
2018,03,19,15,16,9.80
2018,03,19,15,17,9.80
2018,03,19,15,18,9.80
2018,03,19,15,19,9.80
2018,03,19,15,20,9.80
2018,03,19,15,21,9.70
2018,03,19,15,22,9.60
2018,03,19,15,23,9.60
2018,03,19,15,24,9.60
2018,03,19,15,25,9.60
2018,03,19,15,26,9.60
2018,03,19,15,27,9.60
2018,03,19,15,28,9.60
2018,03,19,15,29,9.60
2018,03,19,15,30,9.70
2018,03,19,15,31,9.70
2018,03,19,15,32,9.70
2018,03,19,15,33,9.80
2018,03,19,15,34,9.80
2018,03,19,15,35,9.80
2018,03,19,15,36,9.90
2018,03,19,15,37,9.90
2018,03,19,15,38,9.90
2018,03,19,15,39,9.90
2018,03,19,15,40,9.90
2018,03,19,15,41,9.90
2018,03,19,15,42,10.00
2018,03,19,15,43,10.00
2018,03,19,15,44,10.00
2018,03,19,15,45,10.00
2018,03,19,15,46,10.00
2018,03,19,15,47,10.00
2018,03,19,15,48,10.00
2018,03,19,15,49,10.00
2018,03,19,15,50,10.00
2018,03,19,15,51,10.00
2018,03,19,15,52,10.00
2018,03,19,15,53,9.90
2018,03,19,15,54,9.90
2018,03,19,15,55,9.90
2018,03,19,15,56,9.90
2018,03,19,15,57,9.90
2018,03,19,15,58,9.90
2018,03,19,15,59,9.90
2018,03,19,16,00,9.90
2018,03,19,16,01,9.90
2018,03,19,16,02,9.90
2018,03,19,16,03,9.90
2018,03,19,16,04,9.90
2018,03,19,16,05,9.90
2018,03,19,16,06,9.90
2018,03,19,16,07,10.00
2018,03,19,16,08,10.00
2018,03,19,16,09,10.00
2018,03,19,16,10,10.00
2018,03,19,16,11,10.00
2018,03,19,16,12,10.10
2018,03,19,16,13,10.10
2018,03,19,16,14,10.10
2018,03,19,16,15,10.20
2018,03,19,16,16,10.10
2018,03,19,16,17,10.10
2018,03,19,16,18,10.10
2018,03,19,16,19,10.00
2018,03,19,16,20,10.00
2018,03,19,16,21,10.00
2018,03,19,16,22,10.10
2018,03,19,16,23,10.10
2018,03,19,16,24,10.10
2018,03,19,16,25,10.20
2018,03,19,16,26,10.20
2018,03,19,16,27,10.20
2018,03,19,16,28,10.10
2018,03,19,16,29,10.10
2018,03,19,16,30,10.10
2018,03,19,16,31,10.10
2018,03,19,16,32,10.00
2018,03,19,16,33,10.00
2018,03,19,16,34,10.00
2018,03,19,16,35,10.10
2018,03,19,16,36,10.10
2018,03,19,16,37,10.10
2018,03,19,16,38,10.10
2018,03,19,16,39,10.10
2018,03,19,16,40,10.10
2018,03,19,16,41,10.10
2018,03,19,16,42,10.10
2018,03,19,16,43,10.10
2018,03,19,16,44,10.10
2018,03,19,16,45,10.10
2018,03,19,16,46,10.10
2018,03,19,16,47,10.10
2018,03,19,16,48,10.00
2018,03,19,16,49,10.00
2018,03,19,16,50,10.00
2018,03,19,16,51,10.00
2018,03,19,16,52,10.00
2018,03,19,16,53,10.00
2018,03,19,16,54,10.00
2018,03,19,16,55,10.00
2018,03,19,16,56,10.10
2018,03,19,16,57,10.10
2018,03,19,16,58,10.20
2018,03,19,16,59,10.20
2018,03,19,17,00,10.20
2018,03,19,17,01,10.30
2018,03,19,17,02,10.30
2018,03,19,17,03,10.40
2018,03,19,17,04,10.40
2018,03,19,17,05,10.40
2018,03,19,17,06,10.40
2018,03,19,17,07,10.40
2018,03,19,17,08,10.40
2018,03,19,17,09,10.30
2018,03,19,17,10,10.30
2018,03,19,17,11,10.30
2018,03,19,17,12,10.30
2018,03,19,17,13,10.20
2018,03,19,17,14,10.20
2018,03,19,17,15,10.20
2018,03,19,17,16,10.10
2018,03,19,17,17,10.10
2018,03,19,17,18,10.10
2018,03,19,17,19,10.10
2018,03,19,17,20,10.10
2018,03,19,17,21,10.10
2018,03,19,17,22,10.20
2018,03,19,17,23,10.20
2018,03,19,17,24,10.20
2018,03,19,17,25,10.20
2018,03,19,17,26,10.20
2018,03,19,17,27,10.20
2018,03,19,17,28,10.10
2018,03,19,17,29,10.10
2018,03,19,17,30,10.10
2018,03,19,17,31,10.00
2018,03,19,17,32,10.00
2018,03,19,17,33,9.90
2018,03,19,17,34,9.90
2018,03,19,17,35,9.90
2018,03,19,17,36,9.90
2018,03,19,17,37,9.90
2018,03,19,17,38,9.90
2018,03,19,17,39,9.90
2018,03,19,17,40,9.90
2018,03,19,17,41,9.90
2018,03,19,17,42,9.80
2018,03,19,17,43,9.80
2018,03,19,17,44,9.80
2018,03,19,17,45,9.80
2018,03,19,17,46,9.80
2018,03,19,17,47,9.80
2018,03,19,17,48,9.80
2018,03,19,17,49,9.80
2018,03,19,17,50,9.80
2018,03,19,17,51,9.80
2018,03,19,17,52,9.80
2018,03,19,17,53,9.80
2018,03,19,17,54,9.80
2018,03,19,17,55,9.70
2018,03,19,17,56,9.70
2018,03,19,17,57,9.70
2018,03,19,17,58,9.70
2018,03,19,17,59,9.70
2018,03,19,18,00,9.70